COSMOS 2251 DEB, 37118

Orbit data source: Space-Track

COSMOS 2251 DEB, 37118 is space debris in LEO originally from a launch on Wed, 16 Jun 1993 UTC launched from the Plesetsk Missile And Space Complex (PKMTR). The debris from Iridium 33, an American commercial communications satellite, has been tracked extensively since its accidental collision with the defunct Russian satellite Cosmos 2251 in 2009. This event, occurring at high speed in low Earth orbit (LEO), generated thousands of pieces of space debris, significantly increasing the risk of further collisions. The Iridium 33 debris cloud has impacted space traffic management and orbital debris mitigation strategies, making it a subject of ongoing study in space situational awareness.

Loading next visibility...
Identifier
37118, 1993-036BGQ
Orbit
LEO
Country
Flag of CISCIS
Related business
Manufacturer
Unknown
Mission
Spacecraft
Bus & Motor
Unknown
Mass
Unknown
Launch date (UTC)
1993-06-16 (33 years ago)
Launch vehicle
Unknown
Launch site
Plesetsk Missile And Space Complex (PKMTR)
Object type
Payload
Rocket body
Debris
Shape & HBR
Unknown shape, 0.1 m
Radar Cross Section
Small (<0.1 m²)

Expand to show TLE details & history
Last TLE update: 4 days ago

TLE from 4 days ago
0 COSMOS 2251 DEB
1 37118U 93036BGQ 26206.10411720  .00015272  00000-0  18235-2 0  9991
2 37118  74.0143 359.7860 0005555  37.2195 322.9367 14.84229753688746
Epoch: 2026-07-25T02:29Z
TLE epoch observation values (Epoch: 2026-07-25T02:29:55.726Z)
Latitude
-0.00004°
Longitude
19.4826°
Altitude
615.573 km
Speed
7.553 km/s
True Right ascension
23h 59m 08s
True Declination
0° 00' 00"
Sunlit
Object was in full shadow at epoch
Visualization orbit readout
Latitude
Unknown
Longitude
Unknown
Altitude
Unknown
Speed
Unknown
Apparent Right ascension
Unknown
Apparent Declination
Unknown
Sunlit
N/A
Visualization observer readout
Local Sidereal Time
08:46:16
Azimuth
Unknown
Elevation
Unknown
Doppler factor
Unknown
Orbital elements
Apogee altitude
617.461 km
Perigee altitude
609.694 km
Semi-major axis
6,991.714 km
Eccentricity
0.00056
Inclination
74.0143°
RAAN
359.786°
Arg. of periapsis
37.2195°
True anomaly
322.89831°
Mean anomaly
322.9367°
Eccentric anomaly
322.91751°
Mean motion
3.71251 °/min
Orbital period
96.97 mins
BSTAR
0.0018235
Loading maneuver chart data...
Computing Atmospheric mass density...

Documentation

Showing up to 5 results
|